Find Qianfan Xingzuo 02-10

NORAD ID: 61561 Int'l Des: 2024-185 Owner: YUANX Country: CN Constellation: spacesail operational
LEOCIRCULARPOLAR

当前视图

正在加载3D地球...

About Qianfan Xingzuo 02-10

Qianfan Xingzuo 02-10 (NORAD 61561) is a spacesail constellation satellite launched Oct 15, 2024 by YUANX of CN. It operates in LEO, CIRCULAR, POLAR orbit with a mass of 267.00 kg.

关于 Qianfan Xingzuo 02-10

正在加载描述...

即将过境

Passes for default location (London). Set your location on the main map for personalized predictions.

高度历史

Loading altitude history...

两行轨道根数

1 61561U 24185K 26194.78518384 .00000354 00000-0 13580-3 0 9997
2 61561 88.9818 51.9846 0005633 325.2061 34.8764 14.28417699100589
Epoch: Jul 13, 2026 • Age: 12 hours

当前状态

高度 798.3 km
远地点 / 近地点 N/A
速度 7.46 km/s
星下点 25.29°N, 19.29°E
发射日期 Oct 15, 2024
运行时间 1.7 years
类型 internet

技术详情

分类 Payload
质量 267.00 kg
干质量 267.00 kg
总质量 267.00 kg
长度 0.30 m
直径 3.00 m
跨度 10.00 m
形状 Box+pan
制造商 GESIH/SECM
平台类型 Qianfan
阶段状态 In Orbit
所有者/国家 YUANX/CN

Most Searched